Regional Weather Roundup
Issued by NWS

Home | Current Version | Previous Version | Text Only | Print | Product List | Glossary On
Versions: 1 2 3 4 5 6 7 8 9 10 11 12 13 14 15 16 17 18 19 20 21 22 23 24 25 26 27 28 29 30 31 32 33 34 35 36 37 38 39 40 41 42 43 44 45 46 47 48 49 50
000
ASUS43 KLSX 072307
RWRMO

WEATHER SUMMARY FOR MISSOURI
NATIONAL WEATHER SERVICE SPRINGFIELD MO
500 PM CST SUN FEB 07 2016

NOTE: "FAIR" INDICATES FEW OR NO CLOUDS BELOW 12,000 FEET WITH NO
       SIGNIFICANT WEATHER AND/OR OBSTRUCTIONS TO VISIBILITY.
       CURRENT SKY AND/OR WEATHER CONDITIONS ARE NOT AVAILABLE FOR
       CHILLICOTHE AND FARMINGTON.

MOZ001>031-035>038-043-044-053-054-080000-
...NORTHERN AND WESTERN MISSOURI...

CITY           SKY/WX    TMP DP  RH WIND       PRES   REMARKS
KANSAS CTY INT MOCLDY    47  17  30 NW18G31   29.99R
KANSAS C DTWN  CLOUDY    51  15  23 W24G35    29.99S
LEE`S SUMMIT   MOCLDY    50  15  24 NW28G37   29.99S
ST JOSEPH      CLOUDY    46  19  34 NW24G33   29.98S
CHILLICOTHE      N/A     48  22  35 NW13G33   29.94S
KIRKSVILLE     PTCLDY    44  22  41 NW13G23   29.91S

$$
MOZ066>068-077>081-088>096-101>105-080000-
...SOUTHWEST MISSOURI...

CITY           SKY/WX    TMP DP  RH WIND       PRES   REMARKS
SPRINGFIELD    MOCLDY    49  28  44 W9        30.01F
JOPLIN         MOCLDY    52  22  30 NW16G24   30.05F

$$
MOZ032>034-039>042-045>050-055>058-069>072-080000-
...CENTRAL MISSOURI...

CITY           SKY/WX    TMP DP  RH WIND       PRES   REMARKS
COLUMBIA       CLOUDY    49  23  36 W14       29.93S
JEFFERSON CITY CLOUDY    50  22  33 W18       29.94R
ROLLA          CLOUDY    47  25  42 W24G37    29.94R
SEDALIA        MOCLDY    49  25  39 W16G24    29.98S
WHITEMAN AFB   MOCLDY    50  23  34 NW14G24   29.96S
WARRENSBURG    MOCLDY    48  21  34 NW16G26   29.99R
OSAGE BEACH    CLOUDY    48  23  37 SW10      29.97F

$$
MOZ051-052-059>065-080000-
...EAST CENTRAL MISSOURI...

CITY           SKY/WX    TMP DP  RH WIND       PRES   REMARKS
ST LOUIS INTL  MOCLDY    51  28  41 W9        29.90S
SPIRIT OF STL  MOCLDY    50  30  46 W9        29.89F
ST CHARLES     MOCLDY    49  32  52 W8        29.88F

$$
MOZ072>076-082>087-097>100-106>115-080000-
...SOUTH CENTRAL AND SOUTHEAST MISSOURI...

CITY           SKY/WX    TMP DP  RH WIND       PRES   REMARKS
CAPE GIRARDEAU PTCLDY    54  31  41 SW12      29.91F
FARMINGTON     CLEAR     50  27  40 W8        29.92S
POPLAR BLUFF   PTCLDY    56  26  31 W12       29.92F
WEST PLAINS    CLEAR     52  25  35 W10       29.98R

$$


USA.gov is the U.S. government's official web portal to all federal, state and local government web resources and services.